Tracking 19199 objects as of 25-Jun-2018
HD Live streaming from Space Station
objects crossing your sky now

BREEZE-M R/B

Track BREEZE-M R/B now!


NORAD ID: 37807
Int'l Code: 2011-048B
Perigee: 33,723.2 km
Apogee: 35,697.3 km
Inclination: 4.6 °
Period: 1,381.1 minutes
Semi major axis: 41081 km
RCS: 0.003 m2 (small)
Launch date: September 20, 2011
Source: Commonwealth of Independent States (former USSR) (CIS)
Launch site: TYURATAM MISSILE AND SPACE COMPLEX (TTMTR)

Note: This is a ROCKET BODY
aabbcc
Your satellite tracking list
Your tracking list is empty




NASA's NSSDC Master Catalog

Two Line Element Set (TLE):
1 37807U 11048B   18175.63135073 -.00000235 +00000-0 +00000-0 0  9990
2 37807 004.6334 062.9864 0240264 010.9347 314.6542 01.04264680025221
Source of the keplerian elements: AFSPC